Weather History for KFTK - May, 2014

Change the Weather History Date:

Wednesday, May 7, 2014

  Actual Average Record
Temperature  
Mean Temperature 71 °F -  
Max Temperature 84 °F 72 °F 85 °F (2015)
Min Temperature 58 °F 52 °F 42 °F (1997)
Cooling Degree Days 6    
Growing Degree Days 21 (Base 50)    
Moisture  
Dew Point 55 °F    
Average Humidity 56    
Maximum Humidity 76    
Minimum Humidity 34    
Precipitation  
Precipitation 0.00 in - - ()
Sea Level Pressure  
Sea Level Pressure 29.95 in    
Wind  
Wind Speed 9 mph (South)    
Max Wind Speed 17 mph    
Max Gust Speed 25 mph    
Visibility 10 miles    
Events      
Averages and records for this station are not official NWS values.
T = Trace of Precipitation, MM = Missing Value Source: NWS Daily Summary

Daily Weather History Graph

Daily Weather History Graph

Search for Another Location

Airport or City:

Trip Planner

Search our weather history database for the weather conditions in past years. The results will help you decide how hot, cold, wet, or windy it might be!

Date:

Astronomy

May. 07, 2014 Rise Set
Actual Time 6:41 AM EDT 8:40 PM EDT
Civil Twilight 6:12 AM EDT 9:08 PM EDT
Nautical Twilight 5:37 AM EDT 9:44 PM EDT
Astronomical Twilight 4:59 AM EDT 10:22 PM EDT
Moon 1:51 PM EDT (5/7) 2:32 AM EDT (5/7)
Length of Visible Light 14h 56m
Length of Day
13h 58m
First Quarter, 55% of the Moon is Illuminated
May 7
First Quarter
May 14
Full
May 21
Last Quarter
May 28
New
Jun 5
First Quarter

Hourly Weather History & Observations

Time (EDT) Temp. Heat Index Dew Point Humidity Pressure Visibility Wind Dir Wind Speed Gust Speed Precip Events Conditions
12:58 AM 61.9 °F - 50.7 °F 67% 29.89 in 10.0 mi SSW 3.5 mph - N/A   Clear
2:58 AM 62.4 °F - 50.7 °F 66% 29.90 in 10.0 mi South 5.8 mph - N/A   Clear
3:58 AM 61.3 °F - 50.5 °F 68% 29.90 in 10.0 mi South 6.9 mph - N/A   Clear
4:58 AM 59.9 °F - 50.7 °F 72% 29.91 in 10.0 mi South 5.8 mph - N/A   Clear
5:58 AM 58.8 °F - 50.7 °F 74% 29.93 in 10.0 mi South 5.8 mph - N/A   Clear
6:58 AM 58.6 °F - 50.4 °F 74% 29.94 in 10.0 mi South 4.6 mph - N/A   Clear
7:58 AM 61.5 °F - 53.8 °F 76% 29.96 in 10.0 mi South 5.8 mph - N/A   Clear
8:58 AM 67.1 °F - 55.4 °F 66% 29.99 in 10.0 mi South 10.4 mph - N/A   Clear
9:58 AM 73.4 °F - 58.1 °F 59% 29.99 in 10.0 mi South 15.0 mph - N/A   Mostly Cloudy
10:58 AM 76.5 °F - 58.8 °F 54% 29.99 in 10.0 mi SSW 15.0 mph 20.7 mph N/A   Clear
11:58 AM 79.0 °F - 59.5 °F 51% 29.99 in 10.0 mi SSW 11.5 mph 19.6 mph N/A   Clear
12:25 PM 78.8 °F - 59.0 °F 51% 29.99 in 10.0 mi SW 11.5 mph - N/A   Clear
12:58 PM 79.9 °F - 59.2 °F 49% 29.99 in 10.0 mi South 17.3 mph 23.0 mph N/A   Clear
1:58 PM 81.3 °F 81.7 °F 59.5 °F 47% 29.98 in 10.0 mi South 12.7 mph 21.9 mph N/A   Clear
2:58 PM 82.0 °F 82.0 °F 57.9 °F 44% 29.96 in 10.0 mi South 13.8 mph - N/A   Clear
3:58 PM 82.8 °F 82.2 °F 56.7 °F 41% 29.94 in 10.0 mi South 17.3 mph - N/A   Clear
4:58 PM 82.6 °F 81.8 °F 55.2 °F 39% 29.94 in 10.0 mi South 17.3 mph 24.2 mph N/A   Clear
5:58 PM 84.0 °F - 52.5 °F 34% 29.93 in 10.0 mi South 17.3 mph 25.3 mph N/A   Clear
6:58 PM 82.4 °F 81.6 °F 54.1 °F 38% 29.93 in 10.0 mi South 17.3 mph - N/A   Clear
7:58 PM 79.9 °F - 53.4 °F 40% 29.93 in 10.0 mi South 11.5 mph - N/A   Clear
8:58 PM 73.6 °F - 54.9 °F 52% 29.94 in 10.0 mi South 8.1 mph - N/A   Partly Cloudy
9:58 PM 71.2 °F - 54.7 °F 56% 29.94 in 10.0 mi South 8.1 mph - 0.00 in   Clear
10:58 PM 71.2 °F - 54.0 °F 54% 29.96 in 10.0 mi South 6.9 mph - N/A   Partly Cloudy
11:58 PM 68.4 °F - 54.5 °F 61% 29.97 in 10.0 mi South 6.9 mph - N/A   Clear